Temp
61 56 53 57 55 54 51 49 48 54 60 56 55 55 60 65 66 65 67 69 69 71 77 79 79 79 77 77 75 76 74 75 75 74 71 70 71 72 74 76 78 79 80 81
57 51 58 57 56 53 52 48 48 54 58 55 54 54 60 63 64 66 66 68 70 71 73 76 78 79 77 76 76 75 75 75 74 72 76 74 71 74 76 77 78 79 79 80
49 55 58 56 53 50 51 47 48 47 53 56 53 50 55 63 65 66 68 69 71 71 72 74 76 77 79 77 75 75 75 76 76 76 75 73 72 74 75 76 78 78 78 79
52 57 54 53 50 52 44 53 50 48 46 40 52 38 52 57 59 63 66 68 69 70 71 74 75 75 77 79 80 77 76 75 75 74 71 71 72 72 74 75 78 77 78 79
52 53 52 49 51 54 48 54 50 48 45 43 45 38 49 58 55 60 66 67 69 71 72 72 74 75 78 80 81 77 76 73 72 70 70 70 72 75 75 75 74 76 76 79
53 60 54 54 56 55 55 51 49 48 43 31 44 43 46 53 57 61 65 66 67 70 71 72 74 76 76 79 80 79 75 71 71 69 70 69 68 69 75 74 73 77 76 77
51 50 56 56 50 55 51 43 33 32 30 34 45 42 47 56 61 62 63 65 67 68 70 72 72 74 73 73 75 76 75 73 70 71 69 69 69 70 72 73 75 72 70 74
40 39 50 55 51 46 47 41 31 25 31 37 47 38 50 59 61 63 65 65 66 68 68 69 72 73 75 74 74 75 75 74 73 71 73 74 71 74 77 75 77 74 71 72
39 41 54 55 55 51 41 36 45 33 37 30 41 47 55 60 60 61 61 62 63 64 64 65 68 68 69 71 72 74 74 75 75 72 72 75 75 75 76 75 73 70 69 70
47 34 50 51 54 53 47 47 34 34 27 26 39 41 44 53 57 58 60 60 61 63 64 65 66 65 67 69 69 71 75 75 75 74 72 72 74 74 73 73 70 68 67 67
48 36 42 49 46 45 43 36 36 36 36 30 31 40 56 56 58 57 59 59 61 62 64 65 65 66 66 68 70 69 72 74 75 75 74 71 74 76 70 69 68 67 66 66
48 40 34 42 52 52 49 44 41 31 32 35 35 36 58 59 61 59 57 59 60 60 61 63 65 64 64 65 67 68 69 73 75 75 74 72 72 74 72 68 66 65 64 65
47 36 30 39 46 47 44 47 46 41 37 30 28 36 56 57 57 58 57 59 61 61 60 61 62 62 62 63 64 66 67 71 74 75 74 71 69 69 67 65 64 63 62 62
51 37 35 29 37 43 36 41 45 40 30 35 35 41 48 52 54 56 58 60 60 61 60 59 58 60 62 61 62 63 66 70 74 74 75 72 68 66 65 64 62 61 61 60
46 35 41 42 43 42 40 41 42 39 37 30 37 40 46 50 50 51 53 54 55 56 57 58 57 58 60 60 61 62 66 68 73 73 74 70 67 64 63 62 60 60 59 59
45 36 41 37 44 45 41 43 41 40 40 38 39 37 50 52 51 50 51 51 52 53 54 56 57 57 57 59 60 62 63 67 72 73 73 68 64 62 61 60 60 59 58 59
39 37 36 33 44 41 33 38 37 38 41 35 31 42 47 43 44 45 45 48 48 50 51 54 54 55 56 57 59 59 60 68 70 72 71 66 62 60 59 59 59 58 58 59
41 39 36 34 38 27 46 40 37 33 37 40 38 40 42 39 40 44 46 43 44 47 49 51 53 54 56 58 57 59 61 66 68 68 65 63 61 59 58 58 57 57 57 57
44 39 34 30 32 38 43 35 33 32 32 40 33 35 37 39 37 36 45 49 48 48 50 52 54 54 56 56 57 57 63 68 68 65 63 61 60 58 58 57 57 57 56 54
45 43 35 34 28 26 35 38 42 34 27 36 35 33 33 34 27 36 45 45 47 51 52 52 53 53 53 54 55 55 62 68 64 63 61 60 59 58 56 56 55 55 54 51
39 40 35 36 31 36 38 44 42 28 31 35 35 34 33 31 33 36 40 40 43 46 48 52 52 52 53 54 53 60 64 65 62 61 59 58 57 56 56 54 53 52 51 50
35 32 33 35 32 30 49 41 31 34 34 34 33 34 34 36 37 38 42 45 45 46 49 52 52 52 49 56 59 60 62 60 59 57 56 55 55 54 54 52 51 50 48 45
35 40 34 37 38 48 48 38 41 38 33 33 32 34 35 35 37 45 47 48 48 49 51 52 49 48 55 58 60 56 56 58 59 55 54 53 54 54 53 52 50 47 45 43
47 45 38 38 43 46 41 42 40 38 34 34 33 34 38 40 44 50 49 49 50 51 51 48 48 51 50 53 56 54 55 55 53 51 51 51 51 51 51 51 49 47 46 48
44 45 41 40 45 40 44 40 38 36 36 37 40 41 45 51 50 52 53 53 53 52 50 52 52 49 48 49 50 51 51 51 48 48 48 48 48 49 48 48 48 47 48 48
44 42 39 37 37 33 35 38 38 35 36 39 39 42 47 52 49 51 50 51 52 52 52 50 50 49 48 48 47 48 50 48 47 45 45 43 43 44 43 42 40 39 41 42
MSLP
1012.65 1012.58 1011.96 1011.77 1012.40 1012.26 1011.83 1011.03 1009.87 1008.92 1008.97 1008.45 1007.39 1006.13 1005.37 1005.30 1004.75 1004.55 1004.22 1004.05 1004.03 1003.77 1003.45 1003.32 1003.15 1003.13 1003.43 1003.81 1004.21 1004.40 1004.95 1005.08 1005.61 1005.99 1006.66 1007.54 1007.84 1009.23 1009.38 1010.45 1010.69 1010.93 1011.42 1011.93
1012.62 1012.07 1012.04 1012.46 1012.26 1011.92 1011.52 1010.81 1009.48 1008.76 1008.63 1008.50 1007.08 1004.99 1004.22 1004.42 1003.69 1003.42 1003.04 1002.74 1002.75 1002.87 1003.02 1002.66 1002.65 1002.57 1002.61 1003.20 1003.66 1004.13 1004.47 1004.92 1004.97 1005.66 1005.88 1006.78 1007.70 1008.05 1008.40 1009.59 1010.10 1010.75 1011.41 1011.79
1012.77 1012.04 1012.26 1012.13 1011.79 1011.34 1011.11 1010.62 1009.81 1009.31 1008.67 1008.05 1006.96 1003.86 1003.57 1002.70 1002.45 1001.97 1001.60 1001.56 1001.59 1001.63 1001.87 1002.05 1002.12 1002.12 1001.91 1002.48 1003.05 1003.52 1003.76 1004.38 1004.38 1004.75 1006.15 1006.23 1007.32 1007.04 1008.22 1008.96 1009.60 1010.35 1011.01 1011.48
1012.65 1012.33 1012.12 1011.76 1011.40 1011.23 1010.54 1010.57 1010.33 1009.77 1009.11 1007.86 1007.55 1002.97 1002.81 1001.93 1001.11 1000.81 1000.44 1000.29 1000.41 1000.76 1001.23 1001.43 1001.54 1001.66 1001.60 1001.36 1002.07 1002.81 1003.48 1004.03 1004.28 1004.66 1005.11 1005.87 1005.43 1006.74 1007.35 1008.08 1008.81 1009.76 1010.14 1011.05
1012.36 1012.22 1011.70 1011.46 1011.08 1011.21 1010.74 1010.73 1010.42 1010.01 1009.16 1008.40 1007.05 1005.57 1001.79 1001.12 1000.32 999.66 999.30 999.61 999.98 1000.23 1000.54 1000.72 1000.95 1001.10 1000.99 1001.00 1001.27 1002.07 1002.45 1003.31 1004.07 1004.38 1004.94 1005.51 1005.95 1006.59 1006.91 1007.94 1008.70 1009.41 1010.01 1010.75
1012.62 1012.39 1012.17 1011.36 1011.21 1011.16 1010.93 1010.69 1010.29 1009.44 1009.25 1008.13 1005.76 1004.86 1001.47 1000.49 999.86 999.18 999.22 999.70 1000.02 1000.12 1000.23 1000.26 1000.30 1000.58 1000.41 1000.34 1000.59 1001.32 1001.85 1002.35 1003.50 1004.02 1004.38 1005.16 1005.92 1006.61 1006.90 1007.61 1008.28 1008.94 1009.62 1010.59
1012.27 1011.86 1011.64 1011.59 1011.25 1011.06 1011.23 1011.29 1010.18 1009.40 1009.15 1007.06 1005.96 1004.48 1001.84 1000.70 999.93 999.79 999.55 999.92 1000.13 1000.20 1000.02 999.99 999.98 1000.04 1000.26 1000.11 1000.31 1000.74 1001.49 1001.70 1002.58 1003.80 1004.18 1004.77 1005.24 1006.07 1005.72 1006.63 1007.77 1008.77 1009.49 1010.19
1012.47 1010.98 1011.65 1011.44 1011.57 1011.29 1010.98 1011.88 1011.67 1009.96 1008.57 1006.84 1005.93 1003.53 1000.96 1000.52 1000.23 1000.05 999.89 1000.06 1000.48 1000.49 1000.49 1000.20 999.89 999.83 999.88 1000.01 1000.16 1000.38 1000.88 1001.52 1002.15 1003.08 1003.66 1003.72 1004.60 1005.15 1005.68 1006.44 1007.28 1008.08 1009.31 1009.92
1013.07 1011.77 1011.47 1011.29 1010.96 1011.40 1011.40 1011.60 1011.60 1010.94 1009.36 1007.94 1005.16 1003.07 1001.83 1000.00 999.76 1000.02 1000.09 1000.10 1000.50 1000.96 1001.03 1000.79 1000.37 1000.32 1000.23 1000.30 1000.11 1000.25 1000.51 1000.90 1001.55 1002.31 1003.53 1003.61 1003.27 1004.35 1005.08 1006.23 1007.11 1008.11 1009.15 1010.05
1013.76 1012.21 1011.33 1011.06 1010.95 1010.44 1011.00 1011.70 1011.95 1011.59 1009.40 1006.93 1004.37 1002.82 1001.06 1000.07 999.73 1000.31 1000.50 1000.72 1001.15 1001.41 1001.47 1001.34 1001.06 1000.89 1000.58 1000.43 1000.24 1000.35 1000.37 1000.46 1001.02 1001.85 1002.12 1003.40 1002.56 1003.85 1005.32 1006.21 1006.79 1007.88 1008.93 1010.14
1014.25 1014.29 1011.84 1011.46 1010.30 1009.93 1010.76 1011.44 1011.59 1011.16 1009.73 1007.20 1004.35 1002.17 1001.08 1000.21 999.97 1000.27 1000.72 1001.05 1001.46 1001.55 1001.57 1001.62 1001.35 1001.16 1000.93 1000.51 1000.17 1000.03 1000.06 1000.19 1000.69 1001.15 1001.75 1001.94 1002.94 1002.84 1004.35 1005.69 1006.66 1007.64 1008.78 1010.08
1014.34 1014.02 1012.32 1010.77 1009.56 1009.67 1009.93 1010.32 1010.64 1010.62 1009.13 1007.28 1005.07 1002.31 1001.69 1000.62 1000.21 1000.51 1001.14 1001.52 1001.89 1002.11 1002.07 1001.84 1001.53 1001.39 1001.16 1000.67 1000.21 1000.06 1000.01 1000.01 1000.04 1000.73 1001.32 1001.62 1003.40 1003.22 1004.34 1004.96 1006.66 1007.77 1009.09 1010.28
1014.54 1014.08 1012.47 1010.17 1009.52 1009.75 1009.67 1009.47 1009.72 1009.81 1009.12 1006.73 1005.60 1001.90 1002.12 1001.50 1000.96 1001.04 1001.17 1001.32 1001.55 1001.67 1001.91 1001.92 1001.68 1001.41 1001.23 1000.89 1000.36 1000.14 999.97 999.69 1000.05 1000.49 1000.93 1001.28 1001.71 1003.87 1004.15 1005.18 1006.45 1007.96 1009.53 1010.87
1014.18 1013.82 1013.11 1011.77 1010.16 1010.04 1009.28 1008.90 1008.92 1009.03 1008.04 1006.20 1004.64 1002.03 1002.42 1001.80 1001.13 1000.96 1000.89 1000.83 1001.11 1001.07 1001.40 1001.54 1001.75 1001.09 1001.05 1000.93 1000.57 1000.10 999.79 999.56 999.56 1000.11 1000.72 1001.14 1001.40 1003.91 1004.42 1005.58 1006.42 1008.11 1009.67 1010.93
1014.18 1013.28 1012.26 1011.23 1010.21 1009.51 1008.54 1008.06 1007.58 1007.60 1007.28 1006.28 1004.06 1002.93 1002.32 1001.95 1001.71 1001.51 1001.66 1001.30 1000.87 1000.65 1000.82 1000.81 1001.14 1001.11 1000.64 1000.37 1000.21 1000.00 999.47 999.31 999.05 999.55 1000.23 1001.35 1002.58 1003.22 1005.24 1005.78 1006.45 1008.13 1009.66 1011.11
1014.15 1012.87 1011.78 1010.44 1009.40 1008.48 1006.91 1006.65 1007.13 1007.02 1006.58 1005.90 1004.52 1002.80 1002.74 1002.09 1002.26 1001.75 1001.48 1001.28 1000.47 1000.09 1000.24 1000.41 1000.63 1000.49 1000.18 1000.00 999.77 999.72 999.32 998.87 998.68 998.84 999.43 1001.03 1002.20 1003.20 1005.22 1006.06 1006.94 1008.24 1009.87 1011.25
1013.91 1012.97 1011.79 1009.26 1008.34 1007.58 1006.27 1006.08 1007.06 1006.74 1006.37 1006.06 1004.55 1002.72 1003.07 1002.58 1002.43 1001.96 1001.51 1000.76 1000.11 999.84 999.87 999.73 999.84 999.89 999.76 999.64 999.69 999.19 999.17 998.28 998.16 998.61 999.37 1000.83 1001.96 1003.73 1005.28 1006.26 1006.81 1007.94 1009.86 1011.23
1012.99 1012.72 1011.93 1009.65 1008.44 1006.76 1005.15 1006.62 1007.45 1007.08 1006.54 1005.95 1004.91 1003.94 1003.61 1003.33 1002.60 1001.57 1001.13 1000.42 999.64 999.27 999.29 999.21 999.26 999.26 999.18 999.20 999.23 998.95 998.58 997.62 997.81 998.54 999.54 1000.76 1002.13 1003.50 1004.69 1006.87 1007.27 1008.62 1009.98 1011.53
1012.84 1012.61 1011.61 1010.18 1008.71 1006.67 1005.07 1007.03 1008.02 1007.77 1003.72 1005.07 1004.91 1004.50 1003.92 1003.00 1002.02 999.43 999.41 998.53 997.86 997.69 997.72 997.83 998.18 998.31 998.51 998.58 998.63 998.37 997.48 996.84 997.45 998.56 999.58 1000.49 1001.89 1003.51 1005.12 1007.31 1008.29 1009.23 1010.52 1012.36
1012.07 1012.10 1011.92 1010.20 1008.92 1007.05 1006.61 1007.35 1007.53 1007.75 1005.56 1005.25 1005.45 1004.16 1003.01 1002.32 1001.03 997.71 997.33 997.79 997.17 996.61 996.42 996.47 996.87 997.26 997.65 997.74 997.92 997.60 996.79 996.50 997.39 998.42 999.67 1000.64 1001.94 1003.72 1005.69 1007.36 1008.67 1010.17 1011.78 1012.98
1011.06 1010.57 1010.42 1009.43 1008.60 1006.95 1006.81 1006.77 1007.30 1007.55 1006.12 1005.34 1004.67 1003.65 1002.16 1001.31 999.83 997.66 996.56 995.80 996.13 996.16 995.94 996.09 996.27 996.42 996.68 996.78 996.68 996.22 996.26 996.30 997.40 998.86 1000.28 1001.49 1002.59 1004.39 1006.01 1007.62 1008.88 1010.61 1012.63 1013.90
1011.31 1010.69 1009.89 1009.19 1007.86 1006.13 1005.94 1006.72 1007.79 1007.29 1006.10 1005.58 1003.85 1002.67 1001.09 999.18 997.07 995.76 994.20 993.12 993.69 994.46 995.02 995.39 995.48 995.77 995.61 995.17 995.39 995.36 995.70 996.90 998.21 999.36 1001.03 1002.01 1003.35 1004.88 1006.48 1007.54 1009.66 1011.15 1012.87 1014.38
1011.11 1010.69 1010.41 1010.04 1007.85 1006.39 1006.49 1007.39 1007.53 1007.17 1006.37 1004.85 1003.61 1001.71 1000.27 998.16 995.86 994.02 992.87 992.37 992.79 993.48 994.03 994.64 995.12 995.30 994.84 994.84 994.77 995.25 996.87 997.54 999.00 1000.21 1001.73 1002.91 1004.06 1005.08 1006.40 1008.05 1009.91 1011.82 1013.16 1014.77
1010.18 1010.40 1010.13 1009.66 1007.13 1007.02 1007.33 1007.70 1007.58 1006.78 1005.57 1004.30 1002.68 1000.63 998.53 996.61 994.95 993.73 993.13 992.88 993.01 993.38 993.84 994.45 995.10 994.87 995.22 995.63 995.75 995.99 997.27 998.79 1000.20 1001.79 1002.94 1004.29 1004.75 1005.77 1007.60 1008.66 1010.51 1011.69 1013.72 1014.50
1010.77 1010.43 1009.52 1008.67 1007.46 1007.75 1007.59 1007.93 1007.25 1006.01 1004.61 1003.41 1000.82 998.87 996.84 994.99 994.27 993.52 993.17 993.02 993.26 993.57 994.03 994.48 994.93 995.60 996.38 997.07 997.34 997.51 997.89 998.35 1001.48 1002.89 1004.01 1005.53 1006.18 1007.02 1008.61 1009.84 1011.38 1012.67 1014.27 1014.36
1010.14 1009.73 1009.88 1008.90 1009.08 1009.48 1008.78 1008.13 1007.41 1006.08 1004.49 1003.25 1001.09 998.64 996.43 995.25 994.83 994.42 994.15 994.09 994.20 994.41 994.61 995.35 996.11 996.83 997.80 998.37 998.73 999.17 999.68 1000.28 1002.00 1003.21 1004.49 1005.86 1007.24 1008.42 1009.38 1009.91 1013.35 1015.00 1014.92 1015.99
Wind_Speed
3 7 14 18 13 14 16 20 25 26 22 25 24 27 25 21 20 19 18 16 16 15 16 13 12 10 7 9 13 17 17 17 13 13 12 10 11 10 9 8 11 12 12 13
9 13 11 6 14 16 16 20 26 24 18 17 22 29 27 20 25 22 23 22 19 17 15 16 12 11 9 10 12 14 18 17 14 11 12 8 10 9 9 10 11 12 12 13
10 13 11 12 19 19 14 16 18 19 19 17 20 32 24 21 19 19 21 21 20 19 17 15 14 12 11 9 13 15 17 17 17 17 10 8 8 5 9 11 10 11 13 13
7 4 10 17 18 11 13 6 9 17 16 13 9 21 18 20 20 17 17 17 17 18 15 15 14 13 14 14 12 14 15 17 12 13 10 13 11 11 8 10 11 11 15 15
6 11 19 20 11 9 12 10 16 17 18 17 19 14 9 10 14 18 15 12 12 14 15 16 16 15 16 16 13 13 15 14 15 12 11 11 13 10 7 9 11 11 11 14
14 13 10 9 13 12 9 14 21 14 8 9 18 17 11 8 8 9 3 4 2 6 10 13 14 13 15 15 16 13 16 15 14 13 15 15 14 11 11 11 10 11 9 11
17 3 6 6 12 14 8 13 7 4 3 7 3 10 14 20 19 14 13 12 5 2 6 9 12 12 13 15 16 13 15 17 15 16 16 16 13 13 13 13 11 12 9 10
9 15 7 2 21 16 21 8 5 8 6 12 11 11 5 9 12 13 13 8 1 4 6 8 11 11 11 14 12 16 15 16 18 18 21 19 22 13 12 12 11 10 10 11
11 12 23 21 13 3 2 6 2 7 12 8 7 9 17 8 7 3 8 6 5 7 8 10 5 6 8 9 12 13 15 15 17 18 17 19 19 15 13 15 14 11 10 10
5 21 8 7 17 8 13 2 5 4 6 7 7 11 11 17 12 2 5 8 8 7 8 8 8 9 8 8 10 10 13 16 15 17 15 14 19 18 14 14 15 15 12 13
10 4 12 17 8 16 6 4 6 4 6 7 11 8 6 14 12 8 10 5 6 7 9 9 9 9 9 9 9 9 10 14 14 16 15 13 13 17 17 14 14 14 15 16
3 5 13 21 22 12 14 15 10 6 7 8 10 12 17 18 15 6 5 5 7 8 10 12 11 10 10 10 11 9 9 12 13 13 15 16 19 13 16 16 15 15 15 16
7 4 9 9 3 3 9 10 14 14 14 22 17 14 3 10 11 12 11 12 12 11 11 12 14 12 11 11 11 11 8 11 13 14 13 12 15 13 14 16 18 16 17 17
14 6 13 12 22 21 21 26 24 18 10 18 21 29 24 24 27 26 26 21 20 18 14 14 14 15 13 12 11 12 11 11 14 16 17 17 15 14 14 17 20 19 19 20
5 9 16 19 22 24 28 29 29 21 23 20 26 30 27 25 24 19 19 23 24 23 21 19 15 14 15 14 12 10 12 11 15 17 19 18 14 18 15 18 20 20 20 20
6 8 15 21 23 23 29 24 18 18 19 19 27 28 25 19 16 19 24 28 28 26 25 20 17 16 16 16 14 11 11 12 16 19 19 15 18 18 16 19 21 21 19 19
7 4 9 20 18 25 15 6 5 10 14 15 19 27 23 25 24 23 22 24 24 23 24 21 19 19 17 16 14 14 11 13 17 19 19 19 20 20 20 19 21 23 22 20
6 7 5 13 17 10 7 4 5 12 17 21 24 26 23 20 21 25 22 22 25 25 23 23 19 18 18 15 15 14 13 14 17 17 18 20 20 20 21 19 20 20 20 20
12 5 8 6 11 23 13 3 2 10 30 16 7 10 22 25 24 33 25 24 27 28 25 23 21 21 19 17 14 13 15 15 18 17 19 22 23 22 22 19 19 18 19 18
6 11 6 11 11 9 4 3 8 8 15 5 12 27 28 22 17 22 13 11 14 15 16 16 17 17 17 14 12 13 12 17 20 19 20 21 23 23 22 22 20 16 18 19
8 6 10 11 11 11 2 11 8 7 14 21 27 26 27 24 19 26 28 25 18 20 9 8 11 14 13 12 11 15 12 18 17 17 17 20 22 23 22 21 21 20 19 19
5 6 4 6 10 8 11 18 3 12 20 23 27 28 29 29 30 24 23 20 15 17 17 15 11 9 9 13 14 12 13 18 18 20 17 19 22 18 19 25 21 23 22 19
6 5 6 6 9 23 19 10 14 17 20 24 25 28 28 28 28 21 7 4 9 12 11 10 8 6 6 7 16 21 15 19 20 19 18 18 21 21 21 24 22 19 20 16
6 3 6 10 10 17 16 10 16 20 22 23 23 25 25 23 22 8 2 6 7 8 9 8 6 12 10 11 13 18 21 20 20 17 17 14 18 21 19 17 16 17 15 18
9 8 8 14 18 14 9 18 20 23 24 24 28 24 18 6 7 6 9 8 7 6 4 7 13 15 14 14 15 16 19 22 21 20 18 19 14 18 17 15 15 15 11 13
4 5 5 12 8 4 15 19 22 24 24 25 24 22 20 10 10 12 11 10 9 10 13 12 15 17 15 15 16 17 18 22 24 20 17 15 16 15 16 19 17 26 23 22
Wind_Direction
6 273 274 304 326 300 295 289 285 284 285 286 282 278 278 279 272 265 266 261 259 257 265 275 276 270 241 214 196 198 199 189 183 179 175 179 172 188 175 203 203 194 193 191
297 281 317 291 316 302 293 290 283 283 287 279 284 275 277 276 270 267 263 260 250 251 240 257 252 265 253 199 210 200 205 194 183 188 184 182 181 184 181 191 195 200 195 196
284 282 313 310 314 304 303 288 294 296 307 280 278 274 275 271 262 262 256 248 248 241 233 237 240 243 258 212 201 202 207 208 196 190 185 138 167 120 176 195 193 194 197 202
287 288 292 307 303 291 294 302 297 302 305 298 337 286 290 285 275 261 251 242 237 230 228 232 235 241 243 245 207 198 206 207 206 189 181 182 174 187 186 191 189 187 189 198
292 299 305 307 293 309 289 302 307 299 282 292 259 263 275 286 276 271 266 257 237 238 233 234 234 237 242 246 232 204 196 198 196 184 186 190 184 192 173 182 178 190 182 198
274 290 289 276 308 294 295 305 304 289 279 256 277 245 287 294 280 303 326 28 287 238 236 240 238 228 235 237 235 211 202 189 192 181 181 185 182 185 181 176 172 181 173 183
322 292 278 283 305 309 277 323 299 251 212 264 334 305 260 279 279 279 294 324 337 297 278 253 241 230 227 239 228 226 205 194 180 193 186 182 174 193 195 166 174 164 159 171
330 323 347 238 308 292 288 264 275 297 288 303 294 263 263 278 295 291 296 297 96 28 349 290 261 256 232 234 230 222 214 199 190 186 191 178 180 194 181 175 168 165 170 161
320 292 309 294 295 275 320 218 303 272 255 267 239 266 283 307 281 333 37 50 73 51 17 8 357 306 290 274 260 225 224 215 200 190 194 192 173 179 177 169 160 155 154 150
305 302 314 322 303 291 242 106 255 205 273 257 253 271 275 289 284 27 44 69 56 36 9 360 359 355 346 312 282 261 238 225 206 196 182 212 172 167 167 161 154 156 143 144
309 232 291 308 280 302 268 228 232 276 241 278 281 269 266 276 277 304 346 84 351 339 335 339 338 340 332 329 314 283 247 233 214 197 197 178 201 165 154 156 154 151 143 146
329 276 287 289 287 302 258 263 257 253 258 249 283 270 267 270 276 302 332 341 341 317 318 317 320 322 320 324 325 322 258 236 224 205 194 171 186 167 167 149 153 143 136 140
328 254 294 292 225 160 257 280 288 270 266 263 273 257 314 275 296 268 283 295 297 296 295 306 304 307 306 309 313 320 294 232 217 205 199 186 154 175 169 147 142 140 134 126
293 219 250 273 283 296 289 284 287 271 258 279 265 281 278 271 273 276 279 292 291 287 285 289 285 294 292 289 293 301 298 239 207 195 192 183 157 167 158 145 137 136 134 125
277 259 268 269 282 288 280 281 287 275 268 263 277 280 283 283 284 284 285 287 284 281 281 280 274 275 284 282 282 286 296 246 205 193 189 175 154 134 147 142 133 134 132 131
266 274 295 287 288 287 290 286 281 275 278 272 270 273 276 292 297 278 278 283 274 273 271 262 259 265 272 276 280 281 290 251 199 190 176 157 139 138 138 139 138 132 131 138
264 263 298 292 314 310 286 254 223 266 263 266 276 286 303 289 288 284 282 269 266 266 271 259 259 265 264 268 277 274 276 252 194 185 168 153 138 140 143 141 135 134 138 137
253 270 272 293 311 290 331 142 262 265 273 277 274 281 289 297 293 281 268 263 262 261 256 254 256 259 258 263 269 265 260 236 184 184 154 146 142 139 131 145 137 138 135 133
224 276 299 281 303 283 284 72 290 302 302 290 270 290 294 291 288 277 267 266 258 257 251 248 250 253 256 254 255 263 254 214 177 164 159 145 142 141 139 143 145 132 131 124
172 238 262 297 284 297 21 306 286 278 279 172 303 302 301 305 290 281 295 269 288 277 253 244 239 241 244 243 241 255 234 192 173 155 154 144 140 139 141 139 134 127 121 119
305 306 267 286 287 270 163 311 331 275 319 315 303 299 300 292 276 280 285 277 253 247 225 238 249 235 230 223 233 224 219 178 146 134 138 141 135 135 134 131 124 124 121 118
291 314 293 290 291 297 323 332 310 299 296 297 297 302 298 295 297 294 278 260 234 224 229 239 240 220 237 221 207 200 155 125 126 125 131 130 131 132 132 126 124 121 119 118
271 244 291 275 278 292 320 317 304 303 294 296 298 300 296 296 297 307 324 113 162 188 206 208 195 213 139 129 137 120 132 125 125 126 127 132 138 132 129 129 127 122 121 120
285 274 250 296 260 311 323 325 313 310 302 302 294 289 290 286 289 352 67 122 154 175 182 167 181 116 101 102 118 120 131 131 124 121 121 131 131 127 130 126 125 124 133 132
278 304 272 272 289 320 331 327 318 317 315 320 320 322 311 323 36 56 86 99 119 133 181 167 117 106 101 105 110 116 118 114 117 119 120 120 114 116 117 109 115 116 114 120
205 251 292 293 354 310 314 318 323 320 324 328 325 332 351 81 71 68 62 61 72 79 96 101 102 100 99 99 104 111 119 121 121 121 116 124 119 116 108 100 89 62 91 93